Regional Weather Roundup
Issued by NWS

Home | Current Version | Previous Version | Text Only | Print | Product List | Glossary Off
Versions: 1 2 3 4 5 6 7 8 9 10 11 12 13 14 15 16 17 18 19 20 21 22 23 24 25 26 27 28 29 30 31 32 33 34 35 36 37 38 39 40 41 42 43 44 45 46 47 48 49 50

188
ASUS44 KLIX 161001
RWRLA
LOUISIANA WEATHER ROUNDUP
NATIONAL WEATHER SERVICE NEW ORLEANS LA
500 AM CDT TUE SEP 16 2014

NOTE: "FAIR" INDICATES FEW OR NO CLOUDS BELOW 12,000 FEET WITH NO
      SIGNIFICANT WEATHER AND/OR OBSTRUCTIONS TO VISIBILITY.
      SKY/WX - SKY CONDITION AND SIGNIFICANT WEATHER.
      TMP - AIR TEMPERATURE.    DP   - DEWPOINT TEMPERATURE.
      RH  - RELATIVE HUMIDITY.  PRES - PRESSURE.
      HX  - HEAT INDEX.         WCI  - WIND CHILL INDEX.

*  THESE STATIONS ARE NOT NWS OR FAA STATIONS AND ARE NOT UNDER
   NWS QUALITY CONTROL.

LAZ040-048-061>063-065-066-069-161100-
SOUTHEAST LOUISIANA

CITY           SKY/WX    TMP DP  RH WIND       PRES   REMARKS
N.O. AUDUBON     N/A     79  76  92 MISG        N/A
N.O. INTL ARPT PTCLDY    77  74  90 CALM      30.05S
N.O. LAKEFRONT CLEAR     81  76  84 NW3       30.05F
N.O. DOWNTOWN* FAIR      81  72  74 CALM      30.05S
SLIDELL        CLEAR     73  71  93 CALM      30.04F
BATON ROUGE    PTCLDY    74  72  93 CALM      30.06S
BOOTHVILLE     LGT RAIN  78  75  90 VRB3      30.06S
BELLE CHASSE   CLEAR     75  71  87 CALM      30.05S
BOGALUSA*      FAIR      74  71  89 CALM      30.07S FOG
GALLIANO*      NOT AVBL
NEW ROADS*     FAIR      73  73  98 SW3       30.06S FOG
GONZALES*      FAIR      73  73 100 CALM      30.04F THUNDER FOG
HAMMOND*       NOT AVBL
HOUMA*         PTCLDY    75  72  89 CALM      30.05S THUNDER
PORT FOURCHON* PTSUNNY   82  75  78 SW5       30.09R

$$

LAZ041-044-053-054-161100-
SOUTHWEST LOUISIANA

CITY           SKY/WX    TMP DP  RH WIND       PRES   REMARKS
LAKE CHARLES   CLEAR     75  72  90 NE3       30.05S
LAFAYETTE      CLOUDY    74  74 100 CALM      30.05F
PATTERSON      CLEAR     75  73  94 CALM      30.07F
SALT POINT       N/A     80  77  90 CALM      30.04F
NEW IBERIA     PTCLDY    76  74  93 NE5       30.06F
CHENAULT AIRPK NOT AVBL

$$

LAZ027-028-161100-
CENTRAL LOUISIANA

CITY           SKY/WX    TMP DP  RH WIND       PRES   REMARKS
FORT POLK      MOCLDY    75  72  90 E5        30.05F
ALEXANDRIA INT CLOUDY    75  70  84 NE5       30.05F
ALEXANDRIA     CLOUDY    75  71  87 CALM      30.07F

$$

LAZ001-002-161100-
NORTHWEST LOUISIANA

CITY           SKY/WX    TMP DP  RH WIND       PRES   REMARKS
SHREVEPORT     CLOUDY    74  69  85 NE3       30.08F
BARKSDALE AFB  LGT RAIN  72  70  94 N5        30.09F
DTN SHREVEPORT LGT RAIN  72  70  93 CALM      30.09F

$$

LAZ014-016-161100-
NORTHEAST LOUISIANA

CITY           SKY/WX    TMP DP  RH WIND       PRES   REMARKS
MONROE         CLOUDY    72  68  87 NE3       30.09F
TALLULAH       PTCLDY    71  67  87 CALM      30.08S

$$




USA.gov is the U.S. government's official web portal to all federal, state and local government web resources and services.